Location: Ilten
(52.3467°N, 9.9349°E)
Time: 22:24:56
(UTC+00:00)

Daily predictions for brighter satellites

Satellite Brightness Start Highest point End
(mag) Time Altitude Azimuth Time Altitude Azimuth Time Altitude Azimuth
Cosmos 1626 Rocket 3.9 15:39:51 10° N 15:44:00 41° ENE 15:48:05 10° SE
Cosmos 2084 3.4 15:40:44 10° SW 15:44:57 86° NW 15:49:07 10° NE
IGS 5A 3.7 15:41:51 10° SE 15:45:37 44° ENE 15:49:25 10° N
Cosmos 2227 Rocket 3.0 15:41:12 10° NNW 15:46:10 30° NE 15:51:07 10° ESE
MOS 1 Rocket 4.5 15:42:59 10° ESE 15:46:57 25° ENE 15:51:05 10° N
Cosmos 1892 Rocket 4.1 15:43:54 10° NNW 15:48:20 68° W 15:52:44 10° S
NOSS 2-2 (D) 4.1 15:48:23 10° S 15:51:10 25° SE 15:53:43 10° ENE
Cosmos 2369 Rocket 3.1 15:46:15 10° WSW 15:51:40 45° NW 15:57:09 10° NNE
Cosmos 2084 Rocket 3.7 15:47:53 10° NW 15:51:59 47° NNE 15:56:03 10° ESE
Cosmos 1943 Rocket 4.2 15:49:14 10° WNW 15:52:23 15° NNW 15:55:32 10° NNE
Cosmos 724 4.4 15:47:25 10° NW 15:53:30 65° NE 15:59:24 10° SE
Thor Agena Rocket 3.7 15:49:29 10° SE 15:54:32 53° ENE 15:59:33 10° N
BlueWalker 3 3.1 15:52:04 10° W 15:55:32 42° SSW 15:58:59 10° SE
Meteor 1-28 Rocket 3.6 15:55:59 10° NNE 15:59:07 35° E 16:02:13 10° SSE
Cosmos 1356 Rocket 3.3 15:55:10 10° S 15:59:12 70° E 16:03:17 10° NNE
Cosmos 2026 Rocket 4.4 15:54:08 10° NNW 16:00:21 73° W 16:06:37 10° S
Cosmos 2278 Rocket 4.2 15:58:47 10° WNW 16:02:01 15° NNW 16:05:14 10° NNE
Cosmos 1544 Rocket 4.0 16:00:04 10° SSE 16:04:11 40° E 16:08:20 10° NNE
Cosmos 1484 Rocket 2.5 16:01:20 10° SSE 16:04:51 87° ENE 16:08:22 10° NNW
Cosmos 1697 Rocket 4.1 16:02:02 10° SE 16:05:39 18° E 16:09:00 11° ENE
IRS-1C 4.4 16:00:42 10° SE 16:05:43 44° ENE 16:10:46 10° N
NOSS 2-2 (E) 4.0 16:02:57 10° S 16:05:49 27° SE 16:08:05 12° ENE
Intercosmos 24 3.7 16:04:14 10° N 16:08:19 70° ENE 16:11:51 10° SSE
Cosmos 405 Rocket 2.2 16:05:12 10° NNW 16:08:29 86° ENE 16:11:43 10° SSE
Cosmos 1634 Rocket 4.0 16:04:07 10° S 16:10:18 79° E 16:16:29 10° NNE
Okean 1-7 Rocket 4.3 16:06:41 10° N 16:10:38 31° ENE 16:14:33 10° SE
Lacrosse 5 rocket 1.0 16:09:31 10° WSW 16:13:17 80° NNW 16:16:22 14° ENE
CENTAUR R/B 2.8 16:12:20 10° SW 16:18:10 74° NW 16:25:22 11° NE
Cosmos 1461 4.3 16:15:21 10° SSE 16:18:11 19° ESE 16:20:09 14° E
Meteor 1-20 Rocket 4.3 16:14:21 10° N 16:19:43 52° ENE 16:25:02 10° SSE
Cosmos 1602 Rocket 3.6 16:18:06 10° N 16:22:27 54° ENE 16:26:43 10° SSE
Cosmos 1455 Rocket 4.1 16:18:24 10° SSW 16:22:35 46° WNW 16:26:49 10° N
Cosmos 2279 Rocket 4.0 16:18:44 10° S 16:24:54 72° E 16:31:08 10° NNE
IRIDIUM 103 4.4 16:22:30 10° N 16:27:39 54° E 16:32:44 10° SSE
SMAP 3.0 16:26:28 10° SSE 16:31:07 81° ENE 16:35:49 10° NNW
ERS-1 4.5 16:26:53 10° SE 16:31:47 57° ENE 16:36:40 10° N
UNK 3.8 16:27:28 10° NNE 16:32:01 56° E 16:36:29 10° S
Cosmos 1656 3.7 16:27:02 10° SSW 16:32:36 68° ESE 16:37:56 12° NE
YAOGAN 1 3.5 16:31:39 10° ESE 16:35:05 24° ENE 16:38:32 10° N
Cosmos 1867 3.5 16:30:13 10° NW 16:35:42 74° NE 16:41:09 10° SE
Cosmos 2228 3.5 16:31:57 10° SSW 16:36:09 61° WNW 16:40:23 10° N
NOSS 2-2 (C) 2.9 16:33:07 10° WSW 16:36:13 62° NW 16:38:05 20° NE
Landsat 7 3.7 16:31:59 10° SSE 16:36:37 72° ENE 16:41:17 10° N
SAR-Lupe-4 3.4 16:33:22 10° SSE 16:36:54 65° ENE 16:40:26 10° N
Cosmos 1486 Rocket 4.1 16:32:34 10° S 16:37:40 59° ESE 16:42:24 12° NNE
NOSS 7 (H) 3.9 16:35:42 10° NW 16:38:36 64° NE 16:41:17 13° ESE
Cosmos 2297 Rocket 2.4 16:33:51 10° NNW 16:39:32 77° WSW 16:45:11 10° SSE
USA 290 2.4 16:36:21 10° NNW 16:39:37 73° WSW 16:42:51 10° SSE
USA 215 3.5 16:35:28 16° ENE 16:40:45 60° N 16:47:12 10° WNW
Cosmos 2180 Rocket 4.4 16:36:21 10° S 16:42:25 69° E 16:48:34 10° NNE
Cosmos 1953 Rocket 4.3 16:41:16 10° N 16:45:15 31° ENE 16:49:13 10° SE
Resurs 01 Rocket 3.7 16:47:36 12° NNE 16:47:36 12° NNE 16:48:05 10° NNE
SAR-Lupe-1 3.9 16:42:22 10° SSE 16:45:56 72° ENE 16:49:34 10° N
IRIDIUM 106 4.2 16:40:46 10° N 16:46:01 74° E 16:51:14 10° S
Cosmos 1782 2.6 16:42:55 10° SSW 16:46:31 79° W 16:50:08 10° N
ATLAS CENTAUR R/B 2.8 16:43:43 10° WNW 16:46:38 30° WSW 16:49:27 10° S
CZ-4C R/B 3.0 16:40:54 10° NW 16:47:37 85° SW 16:56:08 10° SE
Cosmos 1607 4.3 16:42:41 10° NW 16:48:52 70° SW 16:55:07 10° SSE
Cosmos 1733 4.2 16:47:55 10° NW 16:49:08 18° W 16:50:21 10° SW
CZ-2D R/B 2.6 16:49:19 10° SSE 16:52:27 88° WSW 16:55:38 10° NNW
Meteor 1-25 Rocket 4.2 16:49:13 10° N 16:55:05 75° ENE 17:00:52 10° SSE
IRS-P3 4.0 16:50:08 10° SSE 16:55:27 76° ENE 17:00:47 10° NNW
Lacrosse 4 Rocket 2.9 16:52:42 10° W 16:56:13 27° NW 16:59:05 13° NNE
Cosmos 1825 Rocket 3.5 16:51:54 10° N 16:56:14 60° ENE 17:00:30 10° SSE
Cosmos 2219 3.7 16:50:59 10° NNW 16:56:18 38° NE 16:59:37 21° E
ARIANE 5 R/B 2.6 16:52:09 10° SSE 16:57:13 79° WSW 17:02:23 10° NNW
Cosmos 2266 Rocket 3.9 16:52:21 10° N 16:58:35 89° E 17:04:40 10° S
Meteor 1-5 Rocket 4.1 16:57:19 10° N 17:02:36 58° ENE 17:07:56 10° SSE
Cosmos 2098 Rocket 3.4 16:58:51 10° SSW 17:02:58 70° WNW 17:07:53 10° N
Cosmos 2151 3.4 16:59:42 10° NNW 17:03:49 63° W 17:07:56 10° S
Cosmos 1743 3.7 17:01:24 10° NNW 17:04:29 40° W 17:07:33 10° SSW
SPOT 1/Viking Rocket 3.5 17:02:00 10° SSE 17:07:09 66° ENE 17:12:20 10° N
Cosmos 1980 Rocket 3.2 17:03:27 10° SSE 17:07:55 25° ESE 17:08:01 25° ESE
Cosmos 1844 Rocket 3.9 17:06:18 10° NNW 17:10:42 22° NE 17:10:59 22° NE
SL-16 R/B 3.4 17:08:40 10° N 17:14:38 49° WNW 17:20:33 10° SW
Cosmos 2263 Rocket 2.1 17:12:19 10° NNW 17:17:58 64° NE 17:23:09 12° SE
NOSS 3-2 (C) 3.1 17:15:09 10° SSW 17:20:14 71° SE 17:23:02 32° NE
NOSS 3-2 (A) 3.5 17:15:13 10° WSW 17:20:25 64° NW 17:24:05 25° NE
GEOS 3 Rocket 3.8 17:19:36 26° NE 17:22:44 74° NW 17:28:06 10° SW
CZ-4 R/B 4.3 17:20:04 10° SSE 17:24:01 86° WSW 17:28:00 10° NNW
MOS 1 Rocket 3.9 17:19:40 10° S 17:24:32 64° W 17:29:42 10° NNW
Cosmos 1076 Rocket 3.3 17:21:18 10° N 17:25:36 76° ENE 17:29:54 10° SSE
BREEZE M DEB (TANK) 3.9 17:24:20 10° SW 17:25:20 19° SSW 17:25:20 19° SSW
Cosmos 1933 3.2 17:25:15 10° SSW 17:29:05 80° W 17:30:45 32° N
Cosmos 2227 Rocket 2.4 17:25:04 10° NW 17:30:42 70° WSW 17:36:19 10° SSE
Cosmos 1538 Rocket 3.9 17:26:23 10° NNW 17:31:41 73° ENE 17:36:28 13° SSE
Cosmos 1606 Rocket 3.5 17:28:10 10° SSW 17:32:34 84° W 17:35:24 22° N
PSLV R/B 3.2 17:36:04 48° SE 17:37:06 74° ENE 17:41:10 10° NNW
Cosmos 2369 Rocket 4.3 17:33:38 10° WNW 17:37:12 17° NNW 17:40:31 11° NNE
COSMO-SKYMED 1 3.3 17:39:14 35° SSE 17:39:14 35° SSE 17:41:53 10° S
CZ-2D R/B 3.5 17:33:42 10° SSE 17:37:55 81° WSW 17:42:05 10° NNW
Cosmos 1943 Rocket 4.3 17:37:12 10° N 17:38:41 11° N 17:39:20 11° NNE
NOSS 2-2 (D) 4.0 17:37:20 10° WSW 17:40:03 33° NW 17:40:03 33° NW
Cosmos 1244 Rocket 4.4 17:34:33 10° N 17:40:50 63° ENE 17:46:59 10° SSE
SL-19 R/B 4.1 17:36:12 10° SSE 17:41:35 83° ENE 17:47:18 10° NNW
Resurs 1-3 3.4 17:37:37 10° SSE 17:41:55 89° ENE 17:46:16 10° NNW
Cosmos 1503 Rocket 4.2 17:38:07 10° SW 17:43:20 67° WNW 17:46:10 27° NNE
BREEZE-M DEB (TANK) 4.2 17:40:17 10° W 17:43:54 62° S 17:48:33 28° ESE
Meteor 2-20 4.3 17:42:07 10° S 17:48:16 78° E 17:54:09 11° NNE
Cosmos 2278 Rocket 4.3 17:46:44 10° NNW 17:48:43 12° N 17:49:06 12° N
Cosmos 1697 Rocket 2.6 17:43:11 10° SSW 17:48:48 88° ESE 17:50:45 43° NNE
Lacrosse 5 rocket 2.2 17:47:06 10° WNW 17:49:58 36° NNW 17:49:58 36° NNW
Cosmos 1354 Rocket 4.0 17:46:17 10° SSW 17:51:33 78° WNW 17:53:34 39° NNE
BREEZE-M DEB (TANK) 4.1 17:49:16 10° W 17:53:02 88° S 17:57:03 37° E
Cosmos 1461 3.0 17:50:40 10° SW 17:54:18 64° WNW 17:54:18 64° WNW
Spot 4 Rocket 4.3 17:50:38 10° S 17:55:43 69° WSW 18:00:51 10° NNW
IRAS Rocket 4.2 17:51:23 10° SSE 17:56:52 79° WSW 18:02:23 10° NNW
Cosmos 1726 Rocket 4.0 17:53:16 10° SSW 17:57:54 66° WNW 17:59:49 34° N
SL-08 R/B 4.4 17:52:49 10° N 17:59:07 70° ENE 18:05:27 10° SSE
Cosmos 1655 Rocket 4.4 17:53:39 10° NNW 17:59:49 63° W 18:05:56 10° S
SKYMED 2 3.8 17:59:36 55° NNW 18:00:23 69° WNW 18:04:42 10° SSW
Gbstr 26 Del rocket 4.2 18:00:17 10° SW 18:02:38 30° SSW 18:02:38 30° SSW
Meteor 2-10 4.3 18:01:52 10° NNW 18:07:11 72° W 18:12:39 10° S
CENTAUR R/B 3.7 18:03:53 10° W 18:09:58 38° NNW 18:12:27 31° NNE
Meteor 2-20 Rocket 4.3 18:04:10 10° S 18:10:24 81° E 18:12:30 44° NNE
YAOGAN 1 3.4 18:06:35 10° S 18:10:42 47° W 18:14:51 10° NNW
Cosmos 923 Rocket 4.4 18:08:43 10° NNW 18:12:38 50° N 18:12:38 50° N
USA 281 4.0 18:17:15 35° NNE 18:17:15 35° NNE 18:21:50 10° NNW
Cosmos 2082 3.6 18:11:02 10° NNW 18:16:47 90° WSW 18:17:04 82° SSE
Meteor 1-26 Rocket 4.5 18:13:59 10° S 18:18:02 52° S 18:18:02 52° S
USA 238 DEB 3.5 18:14:20 10° SSW 18:19:57 62° SSE 18:19:57 62° SSE
USA 238 3.6 18:14:27 10° SSW 18:20:02 61° SSE 18:20:02 61° SSE
Resurs 01 Rocket 4.0 18:25:00 14° NNW 18:25:00 14° NNW 18:25:37 10° NNW
USA 215 3.1 18:22:49 70° ENE 18:23:31 78° NNE 18:30:06 10° WNW
Cosmos 2219 3.8 18:35:06 10° NW 18:40:41 54° WSW 18:41:35 48° SW
Cosmos 1980 Rocket 3.0 18:45:45 10° SW 18:49:48 47° SW 18:49:48 47° SW
Cosmos 1844 Rocket 4.1 18:49:51 10° NNW 18:52:37 30° NNW 18:52:37 30° NNW
Cosmos 2263 Rocket 4.0 18:56:47 10° NW 19:01:29 28° WSW 19:04:58 15° SSW
NOSS 3-2 (C) 4.5 19:06:18 10° W 19:10:27 38° NW 19:10:27 38° NW
CENTAUR R/B 4.3 19:55:40 10° NW 19:59:34 30° NNW 19:59:34 30° NNW
